#timestamp,LO_Frequency,Hit,StdDev 
1524999615.1,286047003.4,Y
1524999616.0,286047003.4,P
1524999635.8,286047007.5,P
1524999655.7,286047003.2,N
1524999675.5,286047001.7,N
1524999695.3,286047003.1,N
1524999715.2,286047004.2,N
1524999735.0,286047002.2,N
1524999735.9,286047002.2,N
1524999755.8,286047002.8,N
1524999775.6,286047002.3,N
1524999795.4,286047000.2,N
1524999815.3,286047000.0,N
1524999835.1,286047001.6,N
1524999855.8,286047000.8,N
1524999875.7,286046999.4,N
1524999895.5,286046998.3,N
1524999915.4,286046999.1,N
1524999935.2,286046996.6,N
1524999955.0,286046994.9,N
1524999955.9,286046994.9,N
1524999975.8,286046995.6,N
1524999995.6,286046995.3,N
1525000015.4,286046995.9,N
1525000035.3,286046993.3,N
1525000055.1,286046994.6,N
1525000075.9,286046994.3,N
1525000095.7,286046993.5,N
1525000115.5,286046995.4,N
1525000135.4,286046995.7,N
1525000155.2,286046995.7,N
1525000175.0,286046993.7,N
1525000175.9,286046993.7,N
1525000195.8,286046993.5,N
1525000215.6,286046993.6,N
1525000235.5,286046994.2,N
1525000255.3,286046994.2,N
1525000275.1,286046992.2,N
1525000295.9,286046994.3,N
1525000315.7,286046994.6,N
1525000335.5,286046993.6,N
1525000355.4,286046994.1,N
1525000375.2,286046993.9,N
1525000395.1,286046993.5,N
1525000396.0,286046993.5,Y
1525000415.8,286046998.9,P
1525000435.6,286046998.7,N
1525000455.5,286046998.2,N
1525000475.3,286046998.2,N
1525000495.2,286046998.3,N
1525000515.9,286046998.6,N
1525000535.7,286046999.6,N
1525000555.6,286046999.3,N
1525000575.4,286046999.4,N
1525000595.2,286046998.8,N
1525000615.1,286046996.6,N
1525000616.0,286046996.6,N
1525000635.8,286046999.0,N
1525000655.7,286046999.1,N
1525000675.5,286046998.7,N
1525000695.3,286046998.5,N
1525000715.2,286046998.5,N
1525000735.0,286046999.0,N
1525000735.9,286046999.0,N
1525000755.7,286046999.4,N
1525000775.6,286046996.5,Y
1525000795.4,286046998.4,P
1525000815.3,286046998.5,P
1525000835.1,286046998.2,P
1525000855.8,286047000.8,Y
1525000875.7,286047002.6,P
1525000895.5,286047002.6,N
1525000915.4,286047000.1,N
1525000935.2,286046999.8,N
1525000955.0,286047000.0,N
1525000955.9,286047000.0,N
1525000975.8,286047002.3,N
1525000995.6,286047000.0,N
1525001015.4,286047000.3,N
1525001035.3,286047000.9,N
1525001055.1,286047000.0,N
1525001075.9,286047000.7,N
1525001095.7,286047000.0,N
1525001115.5,286047002.7,N
1525001135.4,286047002.8,N
1525001155.2,286047000.6,N
1525001175.0,286047001.0,N
1525001175.9,286047001.0,N
1525001195.8,286047000.7,N
1525001215.6,286047000.6,N
1525001235.5,286047000.6,N
1525001255.3,286047000.7,N
1525001275.1,286047000.0,N
1525001295.9,286047001.2,N
1525001315.7,286046999.7,N
1525001335.5,286047001.0,N
1525001355.4,286047000.4,N
1525001375.2,286047000.0,N
1525001395.1,286046999.9,N
1525001396.0,286046999.9,N
1525001415.8,286047000.6,N
1525001435.6,286047001.0,N
1525001455.5,286047000.0,N
1525001475.3,286047000.5,N
1525001495.1,286046999.8,N
1525001515.9,286047000.3,N
1525001535.7,286047000.9,N
1525001555.6,286047000.8,N
1525001575.4,286046998.4,N
1525001595.2,286047001.2,N
1525001615.1,286046998.3,N
1525001616.0,286046998.3,N
1525001635.8,286046998.2,N
1525001655.7,286046996.6,Y
1525001675.5,286046998.7,P
1525001695.3,286046998.6,N
1525001715.2,286046998.9,N
1525001735.0,286046998.4,N
1525001735.9,286046998.4,N
1525001755.7,286046998.6,N
1525001775.6,286046998.2,N
1525001795.4,286046998.1,Y
1525001815.3,286047000.2,P
1525001835.1,286047002.6,P
1525001836.0,286047002.6,N
1525001855.8,286047002.8,N
1525001875.7,286047002.8,N
1525001895.5,286047000.5,N
1525001915.3,286047000.1,N
1525001935.2,286047000.6,N
1525001955.0,286047000.3,N
1525001955.9,286047000.3,N
1525001975.8,286047000.7,N
1525001995.6,286047000.7,N
1525002015.4,286046998.1,N
1525002035.3,286046998.1,N
1525002055.1,286047000.7,N
1525002075.9,286047000.2,N
1525002095.7,286047001.0,N
1525002115.5,286047000.9,N
1525002135.4,286046998.7,N
1525002155.2,286046998.1,N
1525002175.0,286046999.4,N
1525002175.9,286046999.4,N
1525002195.8,286046999.3,N
1525002215.6,286046999.4,N
1525002235.5,286046999.0,N
1525002255.3,286046998.7,N
1525002275.1,286046998.7,N
1525002295.9,286046999.5,N
1525002315.7,286046999.1,N
1525002335.5,286046999.0,N
1525002355.4,286046998.7,N
1525002375.2,286046999.0,N
1525002395.1,286046998.5,N
1525002396.0,286046998.5,N
1525002415.8,286047000.0,N
1525002435.6,286046999.8,N
1525002455.5,286047001.0,N
1525002475.3,286047000.8,N
1525002495.2,286047001.1,N
1525002515.9,286046998.9,N
1525002535.7,286046999.4,N
1525002555.6,286046999.5,N
1525002575.4,286046999.2,N
1525002595.2,286046996.9,Y
1525002615.1,286046999.5,P
1525002616.0,286046999.5,P
1525002635.8,286046998.4,P
1525002655.7,286046998.9,N
1525002675.5,286046996.9,Y
1525002695.3,286046999.0,P
1525002715.2,286046999.4,P
1525002735.0,286046999.4,P
1525002735.9,286046999.4,Y
1525002755.8,286046998.8,P
1525002775.6,286046998.9,P
1525002795.4,286046998.6,P
1525002815.3,286047001.1,Y
1525002835.1,286047002.8,P
1525002855.9,286047000.2,N
1525002875.7,286047004.2,N
1525002895.5,286047003.3,N
1525002915.4,286047007.1,Y
1525002935.2,286047004.2,P
1525002955.0,286047001.4,N
1525002955.9,286047001.4,N
1525002975.8,286047002.5,N
1525002995.6,286047002.4,N
1525003015.5,286047000.1,N
1525003035.3,286047000.2,N
1525003055.1,286047000.8,N
1525003075.9,286046998.2,N
1525003095.7,286047000.4,N
1525003115.5,286046999.9,N
1525003135.4,286046998.1,N
1525003155.2,286046998.4,N
1525003175.1,286046998.8,N
1525003176.0,286046998.8,N
1525003195.8,286046998.9,N
